HULIANWANG DIGUI-116

Last updated on Mon Dec 15 2025 00:02:13 GMT+0000 (Coordinated Universal Time)

1 66955U 25287C 25348.08909877 .00000039 00000+0 25655-4 0 9993 2 66955 86.4907 345.6576 0008081 193.9217 166.1720 13.68903211 717
UTC large
Height (km)
Speed (km/s)
/
Latitude / Longitude
Inclination (degrees)
Orbital Period (minutes)
Azimuth
Elevation
Range (km)
Doppler Factor

Next 0 passes for location: London (51.5072 / 0.1276)

Sorry there are no passes over London.